Cloud_Cover
10 5 0 0 0 0 0 0 0 0 0 23 97 99 12 5 88 49 0 1 71 86 19 6 5 3 5 1 0 0 0 0 4 10 0 0 2 5 12 28 100 100 6
45 40 1 0 0 0 0 0 0 0 0 0 5 6 5 50 100 24 14 68 100 100 100 100 99 99 50 4 3 0 0 5 99 100 34 69 73 82 78 100 92 30 37
5 17 6 0 0 0 0 0 0 0 7 0 0 4 5 70 90 5 94 100 100 100 100 100 100 100 100 100 100 100 100 93 100 100 100 100 100 81 76 68 83 98 99
9 16 57 71 95 12 0 0 0 0 2 0 0 0 4 8 15 68 100 100 100 98 93 100 100 100 100 100 100 100 100 100 100 100 91 97 91 88 100 85 93 99 100
28 34 5 0 4 4 3 5 5 42 4 20 80 15 3 96 100 100 100 100 100 97 48 100 100 100 100 100 100 100 100 100 100 100 100 100 100 100 99 100 96 79 99
95 5 0 0 0 0 0 5 5 3 2 49 100 73 100 100 100 100 100 100 43 5 57 100 100 100 100 100 100 100 100 100 100 100 100 100 100 100 100 100 100 90 97
65 46 5 4 7 5 21 48 52 5 42 36 63 100 100 100 100 100 100 98 8 31 98 94 100 100 100 100 100 100 100 100 100 100 100 100 100 100 100 100 100 97 100
67 0 0 5 5 12 89 60 61 91 96 100 100 64 99 100 100 100 100 75 35 33 100 100 10 76 100 100 100 91 100 100 100 100 100 100 100 100 100 100 100 100 100
0 2 0 0 1 5 19 3 0 0 0 1 6 5 5 28 35 100 93 46 9 6 20 0 1 4 90 100 92 82 54 100 94 100 100 100 100 100 100 100 100 100 100
0 3 4 4 6 38 3 0 0 0 0 0 0 0 0 0 4 100 87 5 2 0 5 81 99 100 100 100 100 71 99 99 100 100 100 100 100 100 100 100 100 100 100
0 0 0 0 0 3 2 0 0 0 0 0 0 0 0 26 80 100 100 0 25 29 19 36 87 100 100 100 94 38 94 100 100 100 100 100 100 100 100 100 100 100 100
0 0 0 0 0 0 0 0 0 0 0 0 0 0 0 0 19 78 100 94 93 98 93 100 92 100 100 99 66 63 78 94 100 100 100 100 100 100 100 100 100 100 100
0 0 0 0 0 0 0 0 0 0 0 0 0 0 0 0 5 72 98 100 99 100 100 100 100 100 100 42 92 77 90 100 99 100 100 100 100 100 100 100 100 100 100
0 0 0 0 0 0 0 0 0 0 0 0 0 0 0 0 6 29 32 19 22 49 42 25 53 18 10 20 48 54 81 100 100 100 100 100 73 36 70 96 96 100 100
0 0 0 0 0 0 0 0 0 3 21 66 23 0 0 0 21 100 100 100 100 100 98 70 42 14 31 13 6 66 100 100 100 100 100 96 100 98 100 99 100 100 100
0 0 71 0 0 52 5 0 93 92 100 100 100 54 14 79 100 100 100 100 100 100 34 24 7 8 29 82 96 100 100 84 58 49 64 76 100 100 96 100 100 100 100
0 7 86 0 0 97 12 0 0 27 97 100 100 100 100 97 100 100 100 100 100 82 10 0 4 26 55 83 89 28 100 100 100 100 100 100 100 100 100 100 100 100 100
0 0 0 0 10 96 1 0 22 82 0 0 89 82 98 100 100 100 100 93 8 67 0 0 0 0 0 11 98 100 100 100 100 100 100 100 100 100 100 98 100 100 100
0 0 0 18 41 23 16 38 67 29 0 0 11 61 100 100 100 100 100 59 1 0 0 0 0 0 10 0 15 27 90 96 88 100 98 100 100 98 95 96 100 100 100
0 0 0 0 0 0 14 18 0 0 0 0 2 0 2 38 11 79 32 8 42 2 0 0 4 4 0 6 7 10 70 97 100 92 81 88 100 100 93 100 100 100 100
0 0 0 0 0 40 0 11 0 0 0 0 31 16 6 0 2 1 0 64 100 98 98 9 5 6 0 0 7 5 99 36 91 100 100 100 99 98 100 86 88 100 100
0 0 0 0 0 0 0 0 0 12 56 0 0 3 0 0 0 0 0 1 53 100 100 100 24 0 0 0 18 91 100 97 100 90 100 80 100 100 96 100 100 97 99
0 0 0 0 1 2 5 95 100 100 10 46 86 98 63 42 2 91 17 31 4 18 44 15 1 35 5 0 0 97 53 62 100 71 70 100 59 70 100 92 82 95 90
0 3 5 5 5 71 96 100 100 100 92 100 100 100 100 66 100 57 5 5 37 72 1 3 5 99 4 0 0 58 85 83 55 5 76 95 12 17 38 90 100 100 100
0 0 0 5 33 100 100 99 84 7 100 40 100 100 79 96 100 21 6 0 0 0 0 0 1 5 86 89 0 50 65 20 1 4 6 5 6 35 22 76 18 74 100
0 0 5 41 100 100 96 5 5 5 5 22 42 6 5 54 100 48 88 7 13 2 3 0 0 61 100 14 2 44 95 48 81 88 45 33 46 24 16 53 12 50 100